[[{"header":{"parameterUnit":"m.s-1","parameterCategory":1,"la1":30.2991,"la2":30.254,"lo1":-89.0895,"lo2":-89.0444,"dy":0.0017,"dx":0.0017,"nx":28,"ny":28,"refTime":"2023-07-18T09:00:00:Z","depth":0,"parameterNumber":2,"parameterNumberName":"U-component_of_WINDS"},"data":[0,0,0,0,0,0,0,0,0,0,0,0,0,0,0,0,0,0,0,0,0,0,0,0,0,0,0,0,0,0,0,0,0,0,0,0,0,0,0,0,0,0,0,0,0,0,0,0,0,0,0,0,0,0,0,0,0,0,0.9561,0.9561,0,0.954,0.9539,0.9539,0.9448,0.9446,0.9444,0.9442,0.9424,0.9426,0.9427,0,0,0,0,0,0,0,0,0,0,0,0,0,0.9525,0.9526,0.9561,0.9561,0.956,0.954,0.9539,0.9539,0.9449,0.9446,0.9443,0.9441,0.9424,0.9426,0.9428,0,0,0,0,0,0,0,0,0,0,0,0,0,0.9526,0.9527,0.9561,0.9513,0.9508,0.954,0.9539,0.9539,0.9449,0.9446,0.9443,0.944,0.9423,0.9426,0.9428,0.9506,0,0,0.9435,0.9436,0,0,0,0,0,0,0,0,0.9526,0.9528,0.952,0.9516,0.9511,0.9493,0.952,0.9528,0.945,0.9472,0.9442,0.9438,0.945,0.945,0.9453,0.9505,0.9504,0.9435,0.9436,0.9437,0.9438,0,0,0,0,0,0,0,0.9526,0.9528,0.9553,0.952,0.9515,0.9493,0.9489,0.9521,0.9479,0.947,0.9463,0.9461,0.9447,0.9451,0.9452,0.9504,0.9435,0.9437,0.9438,0.9439,0.9617,0.962,0,0,0,0,0,0,0.9533,0.9529,0.9553,0.9552,0.9511,0.9496,0.9492,0.9502,0.9479,0.9472,0.9464,0.9457,0.9449,0.945,0.9451,0.954,0.9437,0.944,0.9441,0.9613,0.9618,0.9621,0,0,0,0,0,0,0.9532,0.9536,0.9554,0.9538,0.9539,0.95,0.9512,0.9504,0.9507,0.9474,0.9467,0.9476,0.9446,0.9448,0.9492,0.9538,0.9441,0.9443,0.961,0.9615,0.9619,0.9719,0,0,0,0,0,0,0.9532,0.9536,0.9565,0.954,0.954,0.9595,0.9515,0.9505,0.9511,0.9502,0.9484,0.9478,0.9444,0.9489,0.9495,0.954,0.9444,0.9605,0.9612,0.9618,0.9712,0.9727,0.974,0,0,0,0,0,0.9531,0.9596,0.9567,0.9571,0.9576,0.9598,0.9599,0.9558,0.9515,0.9544,0.9522,0.9478,0.9532,0.9495,0.95,0.9546,0.9602,0.961,0.9617,0.9705,0.9724,0.974,0,0,0,0,0,0,0.963,0.9591,0.956,0.9618,0.9612,0.9583,0.9618,0.9579,0.9586,0.9577,0.9527,0.9524,0.9575,0.9565,0.9524,0.9619,0.9559,0.9568,0.9625,0.9642,0.9656,0.9658,0.9446,0,0,0,0,0,0.9658,0.9678,0.9644,0.9699,0.9697,0.9658,0.9667,0.9635,0.9628,0.9625,0.9607,0.9602,0.9617,0.9629,0.9642,0.9709,0.9704,0.9743,0.9758,0.9769,0.9778,0.9812,0.9829,0.9646,0.9646,0.9646,0,0,0.9718,0.9699,0.9715,0.9718,0.971,0.9733,0.9657,0.9685,0.9702,0.963,0.967,0.9656,0.9647,0.9703,0.9727,0.9696,0.9827,0.9779,0.9789,0.9791,0.9822,0.9839,0.9854,0.9651,0.965,0.9649,0,0,0.9837,0.9825,0.9869,0.9861,0.9848,0.9821,0.9832,0.9808,0.9796,0.9835,0.978,0.98,0.9828,0.9823,0.9825,0.994,0.9899,0.9945,1.0021,1.0054,1.0069,1.0081,1.0122,1.0137,0.9954,0.9954,0.9954,0,0.9914,0.9945,0.9897,0.9927,0.993,0.9863,0.9907,0.9902,0.9895,0.9899,0.9864,0.9896,0.9886,0.9939,0.9967,0.997,0.9981,0.9948,1.007,1.0082,1.0093,1.0132,1.0147,0.996,0.9959,0.9959,0.9958,0,1.0039,1.0061,1.0098,1.009,1.0097,1.0134,1.0092,1.0105,1.0072,1.0049,1.0089,1.0073,1.0081,1.0091,1.006,1.0139,1.0121,1.0079,1.0018,1.0117,1.0153,1.0167,0.9968,0.9966,0.9964,0.9963,0,0,1.0223,1.0186,1.02,1.0195,1.0174,1.0191,1.0225,1.023,1.0242,1.0239,1.0266,1.029,1.025,1.0252,1.0219,1.0249,1.034,1.0203,1.0202,1.0229,1.0426,1.0459,1.0476,1.0312,1.0315,1.0317,1.0427,0,1.0337,1.0392,1.0348,1.0411,1.0431,1.0366,1.0395,1.0386,1.0365,1.0379,1.0356,1.0374,1.032,1.032,1.0346,1.0324,1.0379,1.0315,1.0338,1.034,1.0343,1.0495,1.053,1.0634,1.044,1.0443,1.0444,0,1.0479,1.0479,1.0543,1.0516,1.0523,1.055,1.055,1.0565,1.0553,1.0535,1.0535,1.0495,1.0526,1.0465,1.0507,1.0465,1.0471,1.0461,1.0464,1.0466,1.0399,1.0501,1.0667,1.0683,1.0466,1.0464,1.0463,0,1.0607,1.0624,1.0663,1.0661,1.0631,1.0651,1.064,1.0624,1.0629,1.063,1.0633,1.0638,1.0641,1.0646,1.0608,1.0567,1.0656,1.0591,1.0643,1.0644,1.0666,1.0665,1.0836,1.0669,1.0668,1.0668,1.0668,0,1.074,1.0782,1.072,1.0745,1.079,1.0739,1.0785,1.0767,1.0753,1.0774,1.0718,1.0739,1.0686,1.0702,1.0672,1.0712,1.0713,1.0701,1.0692,1.0706,1.0708,1.0711,1.0703,1.0672,1.0671,1.067,1.067,0,1.0892,1.0852,1.0891,1.0858,1.0851,1.0885,1.0857,1.0879,1.0852,1.0879,1.0882,1.0842,1.0857,1.0818,1.0828,1.0808,1.0865,1.0845,1.0869,1.0863,1.0917,1.0912,1.1096,1.1117,1.0936,1.0938,1.0939,0,1.098,1.101,1.0979,1.0988,1.0978,1.0994,1.0998,1.0948,1.0955,1.0942,1.0966,1.0975,1.0981,1.1007,1.098,1.0987,1.0966,1.103,1.0967,1.098,1.0968,1.0967,1.097,1.1044,1.1046,1.1048,1.1049,0,1.114,1.1118,1.1126,1.1126,1.1132,1.113,1.1125,1.1136,1.1082,1.1093,1.1106,1.111,1.1118,1.1129,1.1129,1.1118,1.1076,1.1069,1.1081,1.1096,1.1109,1.1103,1.0905,1.1065,1.1064,1.1063,1.1062,1.1061,1.1263,1.1286,1.1267,1.1277,1.1267,1.1262,1.1281,1.1255,1.1265,1.1266,1.1237,1.1256,1.1242,1.1237,1.123,1.1245,1.1216,1.1234,1.1238,1.1244,1.1253,1.1105,1.1245,1.1244,1.1244,1.1243,1.1243,0,1.1421,1.1404,1.1414,1.1406,1.1414,1.137,1.1361,1.1371,1.1388,1.1377,1.1382,1.1397,1.1406,1.1378,1.1383,1.14,1.1381,1.1404,1.1402,1.1401,1.1278,1.1267,1.1419,1.1419,1.1419,1.1419,1.1419,1.1419,1.1504,1.154,1.1516,1.1546,1.153,1.1547,1.1546,1.1541,1.1532,1.155,1.1557,1.1537,1.1519,1.1522,1.1529,1.152,1.1525,1.1554,1.154,1.1426,1.1409,1.1393,1.1382,1.1556,1.1556,1.166,1.1661,1.1662]},{"header":{"parameterUnit":"m.s-1","parameterCategory":1,"la1":30.2991,"la2":30.254,"lo1":-89.0895,"lo2":-89.0444,"dy":0.0017,"dx":0.0017,"nx":28,"ny":28,"refTime":"2023-07-18T09:00:00:Z","depth":0,"parameterNumber":3,"parameterNumberName":"V-component_of_WINDS"},"data":[0,0,0,0,0,0,0,0,0,0,0,0,0,0,0,0,0,0,0,0,0,0,0,0,0,0,0,0,0,0,0,0,0,0,0,0,0,0,0,0,0,0,0,0,0,0,0,0,0,0,0,0,0,0,0,0,0,0,1.1048,1.1046,0,1.0906,1.0905,1.0903,1.0797,1.0796,1.0795,1.0794,1.0643,1.064,1.0637,0,0,0,0,0,0,0,0,0,0,0,0,0,1.122,1.1218,1.1048,1.1046,1.1044,1.0906,1.0904,1.0903,1.0797,1.0796,1.0795,1.0794,1.0644,1.0641,1.0637,0,0,0,0,0,0,0,0,0,0,0,0,0,1.1119,1.1217,1.1048,1.0975,1.0967,1.0907,1.0904,1.0902,1.0797,1.0796,1.0795,1.0793,1.0646,1.0641,1.0636,1.0635,0,0,1.0622,1.062,0,0,0,0,0,0,0,0,1.1125,1.1112,1.0988,1.098,1.0971,1.0868,1.091,1.0812,1.0798,1.0862,1.0794,1.0793,1.0719,1.0708,1.0684,1.0628,1.0622,1.0621,1.0619,1.0617,1.0615,0,0,0,0,0,0,0,1.1132,1.1118,1.0992,1.0986,1.0976,1.0947,1.0931,1.0891,1.08,1.0856,1.0848,1.0833,1.0714,1.0689,1.068,1.0619,1.0622,1.0617,1.0614,1.0613,1.0553,1.0554,0,0,0,0,0,0,1.1151,1.1125,1.0996,1.0987,1.1046,1.0946,1.0928,1.0902,1.08,1.0783,1.0834,1.0829,1.0698,1.0686,1.0674,1.0664,1.0617,1.0612,1.0609,1.0551,1.0553,1.0554,0,0,0,0,0,0,1.1155,1.1141,1.1002,1.1054,1.1034,1.0944,1.0917,1.09,1.0875,1.0784,1.0766,1.0826,1.0696,1.0681,1.0645,1.0658,1.061,1.0606,1.055,1.0552,1.0554,1.0646,0,0,0,0,0,0,1.1161,1.1143,1.1143,1.1055,1.1032,1.0978,1.0917,1.0899,1.0868,1.0859,1.0771,1.0755,1.0694,1.0653,1.0641,1.065,1.0602,1.0548,1.0551,1.0553,1.0642,1.0651,1.0659,0,0,0,0,0,1.1167,1.1174,1.1144,1.1129,1.103,1.0979,1.0965,1.0896,1.087,1.0868,1.0809,1.0758,1.0659,1.065,1.0636,1.0644,1.0547,1.055,1.0553,1.0638,1.0649,1.0659,0,0,0,0,0,0,1.1264,1.1161,1.1126,1.1105,1.1052,1.0961,1.0957,1.0911,1.0863,1.0856,1.0771,1.0752,1.0725,1.0681,1.0673,1.0636,1.0596,1.0596,1.0666,1.0676,1.0685,1.0695,1.0598,0,0,0,0,0,1.1284,1.1252,1.1163,1.1153,1.1128,1.1048,1.1022,1.0974,1.0914,1.0891,1.0829,1.0771,1.0727,1.0699,1.0653,1.0635,1.0613,1.0634,1.0642,1.065,1.065,1.0635,1.0643,1.0563,1.0563,1.0563,0,0,1.1322,1.1262,1.1247,1.1171,1.1124,1.1091,1.1029,1.0997,1.0971,1.0885,1.0848,1.0801,1.0731,1.0704,1.0689,1.0666,1.0668,1.0654,1.066,1.0656,1.0639,1.0647,1.0654,1.0565,1.0565,1.0565,0,0,1.1376,1.1328,1.1314,1.1268,1.1199,1.1145,1.1142,1.1058,1.1024,1.0986,1.092,1.0887,1.0813,1.0765,1.0731,1.0767,1.0717,1.0754,1.0799,1.0786,1.0792,1.0797,1.0808,1.0813,1.0755,1.0755,1.0755,0,1.1432,1.1382,1.1312,1.1284,1.1251,1.1174,1.1157,1.1115,1.1034,1.1012,1.0989,1.0893,1.0841,1.0801,1.0809,1.0785,1.0777,1.0763,1.0797,1.0801,1.0805,1.0814,1.0819,1.076,1.076,1.0759,1.0759,0,1.1454,1.1421,1.1417,1.1342,1.1309,1.1287,1.1211,1.1185,1.114,1.1088,1.1049,1.0984,1.0923,1.091,1.0864,1.0863,1.0851,1.0814,1.0771,1.0819,1.0826,1.0829,1.0767,1.0765,1.0764,1.0763,0,0,1.1564,1.1451,1.145,1.1415,1.1332,1.1303,1.1277,1.1219,1.1198,1.1144,1.1118,1.1058,1.1023,1.0984,1.0933,1.0921,1.0951,1.0885,1.0882,1.0898,1.0943,1.0971,1.0976,1.0919,1.0919,1.092,1.0948,0,1.1603,1.1554,1.1489,1.1461,1.1427,1.1353,1.133,1.1276,1.1226,1.1189,1.1134,1.1092,1.105,1.1026,1.1011,1.0951,1.0959,1.0948,1.0891,1.089,1.091,1.098,1.1009,1.1039,1.0951,1.0951,1.0952,0,1.1642,1.1594,1.1563,1.1483,1.1466,1.1447,1.1388,1.1354,1.129,1.1255,1.1213,1.1158,1.1123,1.1087,1.1038,1.1032,1.1005,1.0972,1.0971,1.0962,1.0923,1.0971,1.1047,1.1051,1.0956,1.0955,1.0955,0,1.1724,1.1651,1.1622,1.1594,1.15,1.1488,1.1448,1.1382,1.1352,1.1299,1.1278,1.1222,1.1191,1.1148,1.1079,1.1059,1.1036,1.0994,1.1003,1.1005,1.1,1.1001,1.1072,1.0986,1.0986,1.0986,1.0986,0,1.1773,1.1757,1.1658,1.164,1.1618,1.1543,1.1523,1.1476,1.1419,1.1389,1.1321,1.1294,1.1204,1.1166,1.1111,1.1077,1.1064,1.1033,1.1018,1.1038,1.1042,1.1018,1.1013,1.0987,1.0987,1.0987,1.0987,0,1.1859,1.1793,1.1757,1.1671,1.1649,1.1637,1.1562,1.1541,1.1488,1.1451,1.1438,1.1354,1.1306,1.1233,1.1161,1.1124,1.1099,1.1076,1.1121,1.1112,1.1125,1.1124,1.1181,1.1184,1.1099,1.11,1.1101,0,1.1895,1.188,1.1794,1.177,1.1733,1.1695,1.1663,1.1589,1.1558,1.1484,1.1471,1.1418,1.1371,1.1296,1.1227,1.1172,1.1146,1.117,1.1137,1.1157,1.1144,1.1145,1.1142,1.1177,1.1179,1.118,1.1181,0,1.1964,1.1932,1.189,1.1837,1.1802,1.1756,1.1706,1.169,1.1603,1.1572,1.1523,1.1487,1.1415,1.1362,1.1297,1.1253,1.1201,1.1192,1.1191,1.121,1.1236,1.122,1.114,1.119,1.1189,1.1189,1.1188,1.1188,1.2024,1.2007,1.1944,1.1899,1.1854,1.181,1.1785,1.173,1.1689,1.1626,1.1584,1.1536,1.147,1.1379,1.1337,1.1297,1.1275,1.1274,1.1274,1.1274,1.1281,1.1245,1.1285,1.1285,1.1285,1.1284,1.1284,0,1.2088,1.2044,1.2004,1.1937,1.1902,1.186,1.1802,1.1775,1.1734,1.1679,1.1635,1.1577,1.1525,1.1453,1.1395,1.1377,1.1352,1.1364,1.1363,1.1354,1.1304,1.131,1.1385,1.1385,1.1385,1.1385,1.1385,1.1385,1.2117,1.2086,1.2046,1.1992,1.1947,1.1901,1.1872,1.1829,1.1785,1.1724,1.1682,1.1636,1.1573,1.151,1.146,1.1439,1.142,1.1439,1.1412,1.1367,1.1357,1.1348,1.1354,1.1436,1.1437,1.1464,1.1464,1.1465]}]]